{"data":{"norad_id":55160,"intl_designator":"2023-004W","name":"ONEWEB-0619","alt_names":[],"object_type":"PAYLOAD","status":"ACTIVE","operator":null,"country":"UK","launch_date":"2023-01-10","launch_site_code":"AFETR","launch_vehicle":null,"mission":null,"orbit_class":"UNKNOWN","rcs_meters":null,"size_class":null,"mass_kg":null,"dimensions":null,"purposes":["comms"],"wikipedia_slug":null,"has_3d_model":false,"image_url":null,"decayed_at":null,"tle_current":{"epoch":"2026-05-25T02:10:19.599168Z","epoch_age_seconds":74144,"freshness":"FRESH","line1":"1 55160U 23004W   26145.09050462  .00000004  00000+0 -21860-4 0  9995","line2":"2 55160  87.9161  10.4397 0002236  80.5686 279.5698 13.17649423164558","mean_motion":13.17649423,"eccentricity":0.0002236,"inclination_deg":87.9161,"raan_deg":10.4397,"arg_perigee_deg":80.5686,"mean_anomaly_deg":279.5698,"bstar":-2.186e-5,"rev_number":16455,"period_min":109.28551820115,"perigee_km":1192.0185739996,"apogee_km":1195.4047047111,"semimajor_km":7571.8486393554,"source":"CELESTRAK","updated_at":"2026-05-25T13:38:22.643658Z"}}}